This demonstration page uses our WeatherBlox Daily Observations layout. Learn more.

Left ArrowRight Arrow

Hourly Observations for April 14, 2021

Temp ( °F °C ) Dew Point ( °F °C ) Humidity (%) Winds ( mph kmh ) Pressure ( in mb ) Visibility ( mi km ) Precip ( " mm )
12:51 am 00:51 Clear 68 20 28 -2.2 22 22 NNW 7 11 29.70 1006 10 16 N/A
1:51 am 01:51 Clear 67 19.4 28 -2.2 23 23 SW 7 11 29.71 1006 10 16 N/A
2:51 am 02:51 Clear 62 16.7 28 -2.2 28 28 S 5 7 29.70 1006 10 16 N/A
3:51 am 03:51 Clear 60 15.6 27 -2.8 28 28 E 3 6 29.71 1006 10 16 N/A
4:51 am 04:51 Clear 55 12.8 25 -3.9 31 31 N N/A 29.72 1007 10 16 N/A
5:51 am 05:51 Sunny 55 12.8 25 -3.9 31 31 E 5 7 29.76 1008 10 16 N/A
6:51 am 06:51 Sunny 61 16.1 27 -2.8 27 27 ESE 5 7 29.77 1008 10 16 N/A
7:51 am 07:51 Sunny 67 19.4 31 -0.6 26 26 E 6 9 29.78 1009 10 16 N/A
8:51 am 08:51 Sunny 71 21.7 31 -0.6 23 23 VRB 5 7 29.78 1009 10 16 N/A
9:51 am 09:51 Sunny 75 23.9 28 -2.2 18 18 E 7 11 29.78 1009 10 16 N/A
10:51 am 10:51 Sunny 76 24.4 22 -5.6 13 13 VRB 3 6 29.78 1008 10 16 N/A
11:51 am 11:51 Sunny 81 27.2 19 -7.2 10 10 WNW 8 13 29.75 1007 10 16 N/A
12:51 pm 12:51 Sunny 82 27.8 17 -8.3 9 9 W 8 13 29.72 1007 10 16 N/A
1:51 pm 13:51 Sunny 84 28.9 18 -7.8 8 8 N 5 7 29.69 1006 10 16 N/A
2:51 pm 14:51 Sunny 83 28.3 18 -7.8 9 9 S 8 13 29.68 1005 10 16 N/A
3:51 pm 15:51 Sunny 84 28.9 17 -8.3 8 8 undefined N/A 29.67 1005 10 16 N/A
4:51 pm 16:51 Sunny 83 28.3 10 -12.2 6 6 W 15 24 29.68 1005 10 16 N/A
5:51 pm 17:51 Sunny 81 27.2 11 -11.7 7 7 W 16 26 29.69 1005 10 16 N/A
6:51 pm 18:51 Clear 78 25.6 13 -10.6 8 8 WNW 10 17 29.69 1005 10 16 N/A
7:51 pm 19:51 Clear 76 24.4 15 -9.4 10 10 NW 10 17 29.70 1006 10 16 N/A
8:51 pm 20:51 Clear 74 23.3 17 -8.3 11 11 NW 14 22 29.72 1006 10 16 N/A
9:51 pm 21:51 Clear 73 22.8 19 -7.2 13 13 NNW 10 17 29.73 1007 10 16 N/A
10:51 pm 22:51 Clear 71 21.7 20 -6.7 14 14 NW 9 15 29.73 1007 10 16 N/A
11:51 pm 23:51 Clear 69 20.6 21 -6.1 16 16 NW 12 19 29.73 1007 10 16 N/A

Powered by AerisWeather